Location: Unspecified
(0.0000°N, 0.0000°E)
Time: 22:38:58
(UTC+00:00)

Vanguard 2 - Pass Details

Date: 03 October 2020
Orbit: 554 x 2937 km, 32.9° (Epoch: 27 October)

Event Time Altitude Azimuth Distance (km) Brightness Sun altitude
Rises 23:21:26 0° 235° (SW) 6,725 12.4 -81.9°
Reaches altitude 10° 23:25:51 10° 235° (SW) 5,763 12.0 -82.8°
Enters shadow 23:26:33 12° 235° (SW) 5,609 11.9 -82.9°
Maximum altitude 23:43:58 88° 323° (NW) 2,628 - -85.4°
Drops below altitude 10° 23:57:13 10° 53° (NE) 4,388 - -85.1°
Sets 00:00:06 0° 54° (NE) 5,114 - -84.7°
